Simultaneous Nadir Overpasses (SNOs) Predictions

Prediction of SNOs between NOAA-20 and METOP-B Satellite Orbit:

Table of predicted SNOs for the next 14.0 days since TLE Epoch: 5/30/2020
Index Date (NOAA-20) Time (NOAA-20) Lat,Lon (NOAA-20) SZA (NOAA-20 ) Date (METOP-B) Time (METOP-B) Lat,Lon (METOP-B) SZA (METOP-B ) Distance(km) Time Diff (sec)
1 06/06/2020 10:41:12 73.43, 10.12 50.87 06/06/2020 10:42:19 73.41, 12.72 50.72 82.75 67
2 06/06/2020 11:31:55 -73.37, 177.57 129.20 06/06/2020 11:33:03 -73.33, 179.86 129.36 73.34 68
3 06/06/2020 12:22:36 73.14, -14.60 50.54 06/06/2020 12:23:47 73.08, -13.33 50.42 41.45 71
4 06/06/2020 13:13:19 -73.08, 152.84 129.53 06/06/2020 13:14:31 -73.00, 153.82 129.66 32.74 72
5 06/06/2020 14:04:00 72.84, -39.34 50.21 06/06/2020 14:05:14 72.81, -39.26 50.16 4.32 74
6 06/06/2020 14:54:43 -72.78, 128.09 129.86 06/06/2020 14:55:57 -72.78, 128.01 129.87 2.86 74
7 06/06/2020 15:45:29 72.79, -64.62 50.16 06/06/2020 15:46:36 72.79, -64.64 50.14 0.93 67
8 06/06/2020 16:36:13 -72.79, 102.71 129.86 06/06/2020 16:37:18 -72.81, 102.73 129.85 2.46 65
9 06/06/2020 17:26:59 72.80, -90.01 50.16 06/06/2020 17:27:57 72.82, -89.92 50.15 3.45 58
10 06/06/2020 18:17:43 -72.79, 77.32 129.86 06/06/2020 18:18:40 -72.79, 77.34 129.88 1.06 57
11 06/06/2020 19:08:29 72.81,-115.40 50.16 06/06/2020 19:09:19 72.79,-115.31 50.13 3.37 50
12 06/06/2020 19:59:12 -72.75, 52.04 129.91 06/06/2020 20:00:02 -72.76, 51.96 129.91 3.17 50
13 06/06/2020 20:49:58 72.76,-140.68 50.10 06/06/2020 20:50:41 72.77,-140.69 50.10 1.09 43
14 06/06/2020 21:40:42 -72.75, 26.65 129.91 06/06/2020 21:41:24 -72.74, 26.57 129.93 2.98 42
15 06/06/2020 22:31:28 72.77,-166.07 50.10 06/06/2020 22:32:03 72.75,-166.08 50.08 2.18 35
16 06/06/2020 23:22:12 -72.76, 1.26 129.91 06/06/2020 23:22:45 -72.77, 1.29 129.91 1.40 33
17 06/07/2020 00:12:58 72.77, 168.54 50.10 06/07/2020 00:13:24 72.78, 168.64 50.09 3.23 26
18 06/07/2020 01:03:42 -72.77, -24.13 129.91 06/07/2020 01:04:07 -72.75, -24.10 129.94 2.30 25
19 06/07/2020 01:54:27 72.73, 143.26 50.05 06/07/2020 01:54:46 72.76, 143.25 50.07 2.80 19
20 06/07/2020 02:45:10 -72.72, -49.41 129.97 06/07/2020 02:45:28 -72.73, -49.48 129.96 2.44 18
21 06/07/2020 03:35:56 72.74, 117.87 50.05 06/07/2020 03:36:07 72.73, 117.87 50.04 0.40 11
22 06/07/2020 04:26:40 -72.73, -74.80 129.97 06/07/2020 04:26:49 -72.76, -74.76 129.95 3.09 9
23 06/07/2020 05:17:26 72.74, 92.49 50.05 06/07/2020 05:17:29 72.71, 92.48 50.02 3.56 3
24 06/07/2020 06:08:10 -72.74,-100.18 129.97 06/07/2020 06:08:11 -72.73,-100.15 129.97 1.20 1
25 06/07/2020 06:58:56 72.75, 67.10 50.05 06/07/2020 06:58:50 72.74, 67.20 50.03 3.62 6
26 06/07/2020 07:49:39 -72.69,-125.47 130.02 06/07/2020 07:49:33 -72.71,-125.53 130.00 3.13 6
27 06/07/2020 08:40:25 72.70, 41.82 49.99 06/07/2020 08:40:12 72.72, 41.82 50.01 1.39 13
28 06/07/2020 09:31:09 -72.70,-150.85 130.02 06/07/2020 09:30:55 -72.69,-150.92 130.02 2.32 14
29 06/07/2020 10:21:55 72.71, 16.43 49.99 06/07/2020 10:21:34 72.70, 16.43 49.98 1.79 21
30 06/07/2020 11:12:39 -72.70,-176.24 130.02 06/07/2020 11:12:16 -72.72,-176.20 130.00 2.09 23
31 06/07/2020 12:03:24 72.67, -8.86 49.94 06/07/2020 12:02:56 72.67, -8.95 49.96 3.34 28
32 06/07/2020 12:54:09 -72.71, 158.37 130.02 06/07/2020 12:53:38 -72.70, 158.42 130.03 2.14 31
33 06/07/2020 13:44:54 72.67, -34.24 49.94 06/07/2020 13:44:17 72.70, -34.23 49.98 3.17 37
34 06/07/2020 14:35:38 -72.67, 133.09 130.08 06/07/2020 14:35:00 -72.67, 133.03 130.06 2.12 38
35 06/07/2020 15:26:24 72.68, -59.63 49.94 06/07/2020 15:25:39 72.68, -59.62 49.95 0.33 45
36 06/07/2020 16:17:08 -72.67, 107.70 130.07 06/07/2020 16:16:22 -72.65, 107.65 130.08 2.90 46
37 06/07/2020 17:07:54 72.69, -85.02 49.94 06/07/2020 17:07:01 72.66, -85.01 49.92 3.23 53
38 06/07/2020 17:58:38 -72.68, 82.31 130.07 06/07/2020 17:57:43 -72.68, 82.37 130.06 1.69 55
39 06/07/2020 18:49:23 72.64,-110.30 49.89 06/07/2020 18:48:23 72.63,-110.39 49.90 3.08 60
40 06/07/2020 19:40:07 -72.63, 57.03 130.13 06/07/2020 19:39:05 -72.66, 56.98 130.09 3.21 62
41 06/07/2020 20:30:53 72.65,-135.69 49.89 06/07/2020 20:29:44 72.66,-135.67 49.92 1.83 69
42 06/07/2020 21:21:37 -72.64, 31.64 130.13 06/07/2020 21:20:27 -72.64, 31.60 130.11 1.66 70
43 06/07/2020 22:12:21 72.55,-160.87 49.78 06/07/2020 22:11:07 72.59,-161.16 49.85 10.61 74
44 06/07/2020 23:03:04 -72.49, 6.56 130.29 06/07/2020 23:01:51 -72.51, 6.01 130.23 18.82 73
45 06/07/2020 23:53:45 72.25, 174.35 49.45 06/07/2020 23:52:35 72.26, 172.85 49.55 51.09 70
46 06/08/2020 00:44:29 -72.25, -18.32 130.57 06/08/2020 00:43:18 -72.24, -19.88 130.48 53.00 71
47 06/08/2020 01:35:09 71.95, 149.56 49.12 06/08/2020 01:34:02 71.98, 146.97 49.30 89.04 67
48 06/08/2020 02:25:52 -71.89, -43.02 130.95 06/08/2020 02:24:46 -71.91, -45.85 130.78 97.61 66




NCC Satellite Simultaneous Nadir Overpasses (SNOs) Prediction Service
